H1 CPF 2 NER 2024 8 10 9 223 01 glonass145 H2 2213001 9145 54031 2024 8 10 0 0 0 2024 8 13 23 45 0 900 1 1 0 0 0 1 H9 10 0 60532 0.00000 0 -14218325.190 5305999.016 20497865.859 10 0 60532 900.00000 0 -16556022.362 4649518.220 18832347.116 10 0 60532 1800.00000 0 -18714266.767 4218049.741 16800824.843 10 0 60532 2700.00000 0 -20632053.784 3990513.098 14442692.944 10 0 60532 3600.00000 0 -22255480.145 3935188.159 11803722.292 10 0 60532 4500.00000 0 -23539867.076 4011266.764 8935174.907 10 0 60532 5400.00000 0 -24451514.602 4170798.063 5892808.090 10 0 60532 6300.00000 0 -24969012.920 4360944.825 2735787.768 10 0 60532 7200.00000 0 -25084055.245 4526454.530 -474467.502 10 0 60532 8100.00000 0 -24801717.561 4612239.597 -3675488.722 10 0 60532 9000.00000 0 -24140193.318 4565956.235 -6804980.610 10 0 60532 9900.00000 0 -23129994.285 4340471.323 -9802042.769 10 0 60532 10800.00000 0 -21812651.584 3896111.407 -12608363.039 10 0 60532 11700.00000 0 -20238972.152 3202597.282 -15169358.853 10 0 60532 12600.00000 0 -18466924.756 2240581.110 -17435243.564 10 0 60532 13500.00000 0 -16559245.220 1002720.059 -19361996.572 10 0 60532 14400.00000 0 -14580862.145 -505759.667 -20912218.260 10 0 60532 15300.00000 0 -12596251.656 -2267032.883 -22055853.301 10 0 60532 16200.00000 0 -10666832.195 -4251181.378 -22770768.803 10 0 60532 17100.00000 0 -8848508.261 -6417215.047 -23043176.755 10 0 60532 18000.00000 0 -7189465.253 -8714565.856 -22867893.370 10 0 60532 18900.00000 0 -5728306.669 -11084992.636 -22248431.121 10 0 60532 19800.00000 0 -4492610.159 -13464817.658 -21196922.401 10 0 60532 20700.00000 0 -3497961.332 -15787402.200 -19733876.877 10 0 60532 21600.00000 0 -2747503.955 -17985758.506 -17887777.669 10 0 60532 22500.00000 0 -2232023.701 -19995189.936 -15694524.359 10 0 60532 23400.00000 0 -1930560.238 -21755849.867 -13196733.709 10 0 60532 24300.00000 0 -1811520.474 -23215113.422 -10442911.588 10 0 60532 25200.00000 0 -1834244.881 -24329663.757 -7486511.976 10 0 60532 26100.00000 0 -1950959.966 -25067206.446 -4384901.175 10 0 60532 27000.00000 0 -2109033.814 -25407740.939 -1198247.110 10 0 60532 27900.00000 0 -2253439.027 -25344336.500 2011644.903 10 0 60532 28800.00000 0 -2329318.726 -24883380.688 5182527.399 10 0 60532 29700.00000 0 -2284547.051 -24044290.340 8252914.001 10 0 60532 30600.00000 0 -2072175.842 -22858697.438 11163267.465 10 0 60532 31500.00000 0 -1652664.015 -21369144.049 13857149.662 10 0 60532 32400.00000 0 -995795.247 -19627340.854 16282311.522 10 0 60532 33300.00000 0 -82202.649 -17692061.911 18391702.185 10 0 60532 34200.00000 0 1095564.479 -15626763.243 20144378.192 10 0 60532 35100.00000 0 2532477.684 -13497024.161 21506295.576 10 0 60532 36000.00000 0 4210995.108 -11367917.456 22450969.925 10 0 60532 36900.00000 0 6101558.954 -9301417.396 22959991.910 10 0 60532 37800.00000 0 8163605.589 -7353952.895 23023388.453 10 0 60532 38700.00000 0 10347047.943 -5574207.070 22639822.431 10 0 60532 39600.00000 0 12594170.130 -4001254.353 21816626.705 10 0 60532 40500.00000 0 14841856.920 -2663112.331 20569671.206 10 0 60532 41400.00000 0 17024066.513 -1575768.328 18923064.847 10 0 60532 42300.00000 0 19074444.489 -742721.177 16908697.103 10 0 60532 43200.00000 0 20928970.479 -155057.045 14565627.148 10 0 60532 44100.00000 0 22528527.242 207944.083 11939331.507 10 0 60532 45000.00000 0 23821284.456 377697.087 9080824.110 10 0 60532 45900.00000 0 24764796.969 394742.781 6045665.424 10 0 60532 46800.00000 0 25327728.783 306788.186 2892879.800 10 0 60532 47700.00000 0 25491129.627 166439.604 -316197.591 10 0 60532 48600.00000 0 25249209.726 28725.431 -3519121.194 10 0 60532 49500.00000 0 24609579.620 -51485.202 -6653558.677 10 0 60532 50400.00000 0 23592944.600 -22057.281 -9658512.791 10 0 60532 51300.00000 0 22232266.613 163952.203 -12475516.655 10 0 60532 52200.00000 0 20571429.071 546058.763 -15049778.222 10 0 60532 53100.00000 0 18663461.231 1154433.162 -17331250.863 10 0 60532 54000.00000 0 16568397.238 2008384.502 -19275608.759 10 0 60532 54900.00000 0 14350860.309 3115308.597 -20845107.998 10 0 60532 55800.00000 0 12077473.746 4470146.616 -22009316.786 10 0 60532 56700.00000 0 9814207.402 6055377.319 -22745701.075 10 0 60532 57600.00000 0 7623770.453 7841543.637 -23040054.920 10 0 60532 58500.00000 0 5563158.939 9788291.815 -22886767.987 10 0 60532 59400.00000 0 3681459.608 11845879.943 -22288925.847 10 0 60532 60300.00000 0 2018000.471 13957093.150 -21258241.869 10 0 60532 61200.00000 0 600923.770 16059485.758 -19814822.599 10 0 60532 62100.00000 0 -553760.783 18087857.280 -17986771.632 10 0 60532 63000.00000 0 -1442604.812 19976859.312 -15809639.844 10 0 60532 63900.00000 0 -2074615.995 21663625.075 -13325732.756 10 0 60532 64800.00000 0 -2470624.897 23090312.316 -10583288.367 10 0 60532 65700.00000 0 -2662152.042 24206453.837 -7635541.263 10 0 60532 66600.00000 0 -2689824.200 24971017.979 -4539690.994 10 0 60532 67500.00000 0 -2601407.623 25354093.195 -1355794.560 10 0 60532 68400.00000 0 -2449541.913 25338126.640 1854395.710 10 0 60532 69300.00000 0 -2289270.717 24918665.225 5028626.398 10 0 60532 70200.00000 0 -2175473.813 24104568.314 8105346.348 10 0 60532 71100.00000 0 -2160309.224 22917683.196 11024895.955 10 0 60532 72000.00000 0 -2290773.541 21391996.821 13730659.511 10 0 60532 72900.00000 0 -2606483.587 19572299.066 16170158.542 10 0 60532 73800.00000 0 -3137773.248 17512413.003 18296065.374 10 0 60532 74700.00000 0 -3904186.135 15273065.569 20067117.613 10 0 60532 75600.00000 0 -4913428.199 12919486.778 21448916.331 10 0 60532 76500.00000 0 -6160825.292 10518836.762 22414592.910 10 0 60532 77400.00000 0 -7629309.729 8137566.994 22945331.892 10 0 60532 78300.00000 0 -9289937.864 5838824.632 23030739.890 10 0 60532 79200.00000 0 -11102918.748 3680007.185 22669053.321 10 0 60532 80100.00000 0 -13019112.517 1710568.487 21867180.593 10 0 60532 81000.00000 0 -14981937.589 -29833.289 20640577.360 10 0 60532 81900.00000 0 -16929608.469 -1512769.006 19012956.440 10 0 60532 82800.00000 0 -18797611.780 -2721993.913 17015837.120 10 0 60532 83700.00000 0 -20521317.845 -3653885.434 14687941.577 10 0 60532 84600.00000 0 -22038618.901 -4317345.420 12074449.223 10 0 60532 85500.00000 0 -23292483.357 -4733171.337 9226122.728 10 0 60533 0.00000 0 -24233318.519 -4932923.290 6198322.537 10 0 60533 900.00000 0 -24821042.269 -4957335.322 3049927.236 10 0 60533 1800.00000 0 -25026774.545 -4854338.602 -157814.862 10 0 60533 2700.00000 0 -24834078.188 -4676781.407 -3362485.371 10 0 60533 3600.00000 0 -24239694.712 -4479943.219 -6501718.563 10 0 60533 4500.00000 0 -23253743.875 -4318949.654 -9514423.851 10 0 60533 5400.00000 0 -21899378.129 -4246199.024 -12341982.933 10 0 60533 6300.00000 0 -20211906.306 -4308910.825 -14929397.318 10 0 60533 7200.00000 0 -18237423.476 -4546901.180 -17226363.066 10 0 60533 8100.00000 0 -16031004.842 -4990680.310 -19188251.354 10 0 60533 9000.00000 0 -13654539.744 -5659953.290 -20776975.652 10 0 60533 9900.00000 0 -11174296.917 -6562587.924 -21961728.769 10 0 60533 10800.00000 0 -8658323.008 -7694093.669 -22719575.926 10 0 60533 11700.00000 0 -6173782.974 -9037633.790 -23035893.028 10 0 60533 12600.00000 0 -3784353.048 -10564570.412 -22904642.382 10 0 60533 13500.00000 0 -1547774.180 -12235519.756 -22328481.338 10 0 60533 14400.00000 0 486333.109 -14001873.511 -21318702.481 10 0 60533 15300.00000 0 2278302.785 -15807722.813 -19895007.146 10 0 60533 16200.00000 0 3799831.473 -17592104.634 -18085117.068 10 0 60533 17100.00000 0 5034903.812 -19291476.925 -15924231.917 10 0 60533 18000.00000 0 5980198.212 -20842319.354 -13454343.364 10 0 60533 18900.00000 0 6644957.939 -22183751.208 -10723418.881 10 0 60533 19800.00000 0 7050334.699 -23260057.401 -7784470.994 10 0 60533 20700.00000 0 7228233.804 -24023017.116 -4694529.882 10 0 60533 21600.00000 0 7219710.795 -24433937.787 -1513539.051 10 0 60533 22500.00000 0 7072988.068 -24465309.560 1696804.626 10 0 60533 23400.00000 0 6841175.872 -24102010.891 4874244.127 10 0 60533 24300.00000 0 6579794.310 -23342014.852 7957165.738 10 0 60533 25200.00000 0 6344201.230 -22196566.447 10885789.566 10 0 60533 26100.00000 0 6187034.720 -20689823.181 13603324.215 10 0 60533 27000.00000 0 6155778.226 -18857973.537 16057063.519 10 0 60533 27900.00000 0 6290551.095 -16747869.620 18199404.453 10 0 60533 28800.00000 0 6622217.853 -14415230.349 19988766.907 10 0 60533 29700.00000 0 7170896.210 -11922489.291 21390397.930 10 0 60533 30600.00000 0 7944927.156 -9336375.807 22377045.338 10 0 60533 31500.00000 0 8940351.282 -6725329.203 22929487.887 10 0 60533 32400.00000 0 10140914.453 -4156852.390 23036911.947 10 0 60533 33300.00000 0 11518603.955 -1694914.032 22697127.276 10 0 60533 34200.00000 0 13034694.161 602493.679 21916617.404 10 0 60533 35100.00000 0 14641259.450 2685540.894 20710423.076 10 0 60533 36000.00000 0 16283092.526 4514399.322 19101860.218 10 0 60533 36900.00000 0 17899949.012 6060658.650 17122076.956 10 0 60533 37800.00000 0 19429025.213 7308261.513 14809457.331 10 0 60533 38700.00000 0 20807565.731 8253918.302 12208882.319 10 0 60533 39600.00000 0 21975491.557 8906984.775 9370861.803 10 0 60533 40500.00000 0 22877937.971 9288808.095 6350553.896 10 0 60533 41400.00000 0 23467594.839 9431569.348 3206690.519 10 0 60533 42300.00000 0 23706749.887 9376672.076 430.400 10 0 60533 43200.00000 0 23568947.801 9172745.799 -3205837.637 10 0 60533 44100.00000 0 23040194.167 8873349.991 -6349716.965 10 0 60533 45000.00000 0 22119652.516 8534476.934 -9370026.194 10 0 60533 45900.00000 0 20819804.309 8211960.434 -12207998.097 10 0 60533 46800.00000 0 19166064.575 7958901.404 -14808430.117 10 0 60533 47700.00000 0 17195869.097 7823220.451 -17120763.229 10 0 60533 48600.00000 0 14957271.408 7845441.998 -19100067.661 10 0 60533 49500.00000 0 12507108.556 8056804.369 -20707916.139 10 0 60533 50400.00000 0 9908812.617 8477776.127 -21913127.777 10 0 60533 51300.00000 0 7229959.568 9117041.530 -22692368.603 10 0 60533 52200.00000 0 4539657.821 9970997.931 -23030597.714 10 0 60533 53100.00000 0 1905885.034 11023786.184 -22921351.171 10 0 60533 54000.00000 0 -607116.421 12247852.728 -22366858.928 10 0 60533 54900.00000 0 -2941277.813 13605019.605 -21377993.281 10 0 60533 55800.00000 0 -5046875.938 15048017.501 -19974050.460 10 0 60533 56700.00000 0 -6884349.563 16522417.554 -18182370.026 10 0 60533 57600.00000 0 -8425686.514 17968881.085 -16037799.717 10 0 60533 58500.00000 0 -9655325.291 19325633.137 -13582016.217 10 0 60533 59400.00000 0 -10570535.477 20531056.394 -10862714.957 10 0 60533 60300.00000 0 -11181262.842 21526297.017 -7932684.539 10 0 60533 61200.00000 0 -11509447.266 22257773.320 -4848783.586 10 0 60533 62100.00000 0 -11587843.622 22679482.290 -1670839.678 10 0 60533 63000.00000 0 -11458396.374 22755007.182 1539508.440 10 0 60533 63900.00000 0 -11170237.277 22459141.987 4720003.005 10 0 60533 64800.00000 0 -10777391.237 21779064.600 7808970.735 10 0 60533 65700.00000 0 -10336287.458 20715009.115 10746514.539 10 0 60533 66600.00000 0 -9903181.052 19280408.715 13475670.459 10 0 60533 67500.00000 0 -9531593.907 17501502.584 15943507.731 10 0 60533 68400.00000 0 -9269882.701 15416422.498 18102151.004 10 0 60533 69300.00000 0 -9159036.522 13073796.366 19909705.318 10 0 60533 70200.00000 0 -9230796.888 10530925.943 21331066.360 10 0 60533 71100.00000 0 -9506179.513 7851613.425 22338600.761 10 0 60533 72000.00000 0 -9994460.405 5103726.209 22912683.527 10 0 60533 72900.00000 0 -10692669.582 2356599.829 23042082.404 10 0 60533 73800.00000 0 -11585614.613 -321614.243 22724181.631 10 0 60533 74700.00000 0 -12646434.136 -2866546.752 21965040.464 10 0 60533 75600.00000 0 -13837659.408 -5220047.804 20779284.767 10 0 60533 76500.00000 0 -15112740.658 -7332362.414 19189832.985 10 0 60533 77400.00000 0 -16417975.385 -9163954.491 17227460.906 10 0 60533 78300.00000 0 -17694758.599 -10686903.696 14930212.671 10 0 60533 79200.00000 0 -18882061.171 -11885817.198 12342668.526 10 0 60533 80100.00000 0 -19919032.286 -12758218.486 9515082.820 10 0 60533 81000.00000 0 -20747616.369 -13314397.287 6502408.491 10 0 60533 81900.00000 0 -21315073.674 -13576727.363 3363226.847 10 0 60533 82800.00000 0 -21576297.423 -13578481.474 158603.686 10 0 60533 83700.00000 0 -21495828.633 -13362194.321 -3049105.445 10 0 60533 84600.00000 0 -21049482.440 -12977643.527 -6197476.787 10 0 60533 85500.00000 0 -20225516.068 -12479535.188 -9225241.894 10 0 60534 0.00000 0 -19025288.265 -11924993.132 -12073488.018 10 0 60534 900.00000 0 -17463380.818 -11370959.078 -14686812.513 10 0 60534 1800.00000 0 -15567178.071 -10871615.558 -17014404.174 10 0 60534 2700.00000 0 -13375919.610 -10475940.573 -19011035.055 10 0 60534 3600.00000 0 -10939267.161 -10225498.760 -20637939.398 10 0 60534 4500.00000 0 -8315445.105 -10152562.512 -21863564.269 10 0 60534 5400.00000 0 -5569032.405 -10278642.456 -22664177.473 10 0 60534 6300.00000 0 -2768498.010 -10613489.169 -23024321.587 10 0 60534 7200.00000 0 16417.768 -11154607.835 -22937106.042 10 0 60534 8100.00000 0 2717367.343 -11887305.875 -22404332.414 10 0 60534 9000.00000 0 5269995.330 -12785271.136 -21436451.222 10 0 60534 9900.00000 0 7616366.257 -13811655.951 -20052351.673 10 0 60534 10800.00000 0 9707120.835 -14920621.257 -18278988.917 10 0 60534 11700.00000 0 11503272.514 -16059275.791 -16150856.247 10 0 60534 12600.00000 0 12977571.103 -17169928.810 -13709312.628 10 0 60534 13500.00000 0 14115378.365 -18192561.854 -11001778.540 10 0 60534 14400.00000 0 14915020.716 -19067415.813 -8080815.623 10 0 60534 15300.00000 0 15387605.950 -19737584.714 -5003107.819 10 0 60534 16200.00000 0 15556313.170 -20151507.349 -1828363.615 10 0 60534 17100.00000 0 15455187.053 -20265252.034 1381839.501 10 0 60534 18000.00000 0 15127488.227 -20044498.449 4565246.030 10 0 60534 18900.00000 0 14623669.957 -19466133.131 7660125.957 10 0 60534 19800.00000 0 13999066.894 -18519391.274 10606467.558 10 0 60534 20700.00000 0 13311393.519 -17206496.467 13347136.562 10 0 60534 21600.00000 0 12618157.739 -15542770.792 15828979.495 10 0 60534 22500.00000 0 11974098.524 -13556209.817 18003850.183 10 0 60534 23400.00000 0 11428755.298 -11286539.214 19829539.923 10 0 60534 24300.00000 0 11024271.229 -8783791.137 21270593.748 10 0 60534 25200.00000 0 10793522.692 -6106458.361 22298997.426 10 0 60534 26100.00000 0 10758653.598 -3319301.617 22894722.173 10 0 60534 27000.00000 0 10930076.410 -490899.889 23046116.727 10 0 60534 27900.00000 0 11305982.290 2308955.964 22750139.128 10 0 60534 28800.00000 0 11872381.633 5011919.180 22012423.425 10 0 60534 29700.00000 0 12603674.184 7553683.472 20847179.453 10 0 60534 30600.00000 0 13463725.783 9876412.798 19276926.858 10 0 60534 31500.00000 0 14407407.482 11930904.063 17332067.622 10 0 60534 32400.00000 0 15382533.200 13678393.190 15050304.396 10 0 60534 33300.00000 0 16332115.062 15091929.496 12475914.989 10 0 60534 34200.00000 0 17196841.740 16157261.140 9658896.381 10 0 60534 35100.00000 0 17917675.316 16873194.768 6653994.370 10 0 60534 36000.00000 0 18438456.687 17251414.549 3519637.561 10 0 60534 36900.00000 0 18708408.732 17315768.604 316796.623 10 0 60534 37800.00000 0 18684430.449 17101053.491 -2892208.447 10 0 60534 38700.00000 0 18333083.901 16651348.839 -6044929.050 10 0 60534 39600.00000 0 17632188.743 16017973.401 -9080011.937 10 0 60534 40500.00000 0 16571955.716 15257150.042 -11938401.479 10 0 60534 41400.00000 0 15155610.174 14427479.502 -14564495.922 10 0 60534 42300.00000 0 13399478.442 13587330.822 -16907234.257 10 0 60534 43200.00000 0 11332532.666 12792259.665 -18921092.018 10 0 60534 44100.00000 0 8995412.740 12092564.244 -20566966.463 10 0 60534 45000.00000 0 6438966.028 11531082.421 -21812933.962 10 0 60534 45900.00000 0 3722365.710 11141322.938 -22634865.289 10 0 60534 46800.00000 0 910886.118 10946009.256 -23016887.525 10 0 60534 47700.00000 0 -1926572.427 10956096.845 -22951684.295 10 0 60534 48600.00000 0 -4720106.661 11170304.573 -22440629.359 10 0 60534 49500.00000 0 -7401472.776 11575179.133 -21493751.696 10 0 60534 50400.00000 0 -9906678.300 12145689.068 -20129533.377 10 0 60534 51300.00000 0 -12178396.734 12846322.711 -18374544.634 10 0 60534 52200.00000 0 -14168105.786 13632643.377 -16262923.440 10 0 60534 53100.00000 0 -15837861.606 14453235.997 -13835709.829 10 0 60534 54000.00000 0 -17161636.615 15251963.129 -11140047.840 10 0 60534 54900.00000 0 -18126166.662 15970435.282 -8228270.408 10 0 60534 55800.00000 0 -18731273.696 16550591.634 -5156884.866 10 0 60534 56700.00000 0 -18989651.826 16937282.467 -1985478.518 10 0 60534 57600.00000 0 -18926127.042 17080744.547 1224434.649 10 0 60534 58500.00000 0 -18576422.827 16938865.253 4410603.794 10 0 60534 59400.00000 0 -17985484.374 16479139.930 7511244.697 10 0 60534 60300.00000 0 -17205432.478 15680239.869 10466233.652 10 0 60534 61200.00000 0 -16293233.556 14533124.458 13218268.829 10 0 60534 62100.00000 0 -15308183.909 13041650.120 15713976.850 10 0 60534 63000.00000 0 -14309314.009 11222649.585 17904943.514 10 0 60534 63900.00000 0 -13352821.729 9105477.032 19748649.088 10 0 60534 64800.00000 0 -12489642.089 6731036.801 21209290.500 10 0 60534 65700.00000 0 -11763255.298 4150334.675 22258474.966 10 0 60534 66600.00000 0 -11207824.867 1422610.552 22875771.909 10 0 60534 67500.00000 0 -10846743.832 -1386871.424 23049112.690 10 0 60534 68400.00000 0 -10691650.128 -4209284.988 22775030.363 10 0 60534 69300.00000 0 -10741952.714 -6974855.243 22058734.505 10 0 60534 70200.00000 0 -10984888.762 -9615516.206 20914019.166 10 0 60534 71100.00000 0 -11396110.120 -12067503.006 19363004.924 10 0 60534 72000.00000 0 -11940775.061 -14273771.630 17435719.174 10 0 60534 72900.00000 0 -12575100.064 -16186145.981 15169521.786 10 0 60534 73800.00000 0 -13248306.773 -17767103.007 12608386.380 10 0 60534 74700.00000 0 -13904882.425 -18991121.406 9802050.393 10 0 60534 75600.00000 0 -14487058.315 -19845537.528 6805049.954 10 0 60534 76500.00000 0 -14937401.318 -20330872.639 3675658.127 10 0 60534 77400.00000 0 -15201408.228 -20460617.972 474747.372 10 0 60534 78300.00000 0 -15229992.218 -20260486.928 -2735401.141 10 0 60534 79200.00000 0 -14981755.033 -19767166.512 -5892317.415 10 0 60534 80100.00000 0 -14424947.471 -19026621.423 -8934566.934 10 0 60534 81000.00000 0 -13539033.912 -18092023.321 -11802954.527 10 0 60534 81900.00000 0 -12315793.535 -17021393.757 -14441683.388 10 0 60534 82800.00000 0 -10759910.620 -15875061.310 -16799445.822 10 0 60534 83700.00000 0 -8889028.139 -14713041.217 -18830423.974 10 0 60534 84600.00000 0 -6733261.622 -13592448.739 -20495180.836 10 0 60534 85500.00000 0 -4334193.175 -12565055.728 -21761424.284 10 0 60535 0.00000 0 -1743387.553 -11675093.463 -22604629.625 10 0 60535 900.00000 0 979509.427 -10957393.489 -23008509.563 10 0 60535 1800.00000 0 3769007.660 -10435945.205 -22965322.149 10 0 60535 2700.00000 0 6556256.521 -10122928.383 -22476013.051 10 0 60535 3600.00000 0 9271669.395 -10018261.454 -21550188.886 10 0 60535 4500.00000 0 11847581.822 -10109682.930 -20205923.292 10 0 60535 5400.00000 0 14220833.364 -10373361.567 -18469399.868 10 0 60535 6300.00000 0 16335166.843 -10775008.624 -16374399.166 10 0 60535 7200.00000 0 18143346.246 -11271444.659 -13961639.835 10 0 60535 8100.00000 0 19608906.355 -11812554.310 -11277986.668 10 0 60535 9000.00000 0 20707462.506 -12343546.326 -8375540.799 10 0 60535 9900.00000 0 21427527.115 -12807423.421 -5310629.588 10 0 60535 10800.00000 0 21770800.079 -13147557.610 -2142715.597 10 0 60535 11700.00000 0 21751922.172 -13310262.492 1066754.306 10 0 60535 12600.00000 0 21397702.702 -13247253.792 4255537.520 10 0 60535 13500.00000 0 20745854.790 -12917894.372 7361799.035 10 0 60535 14400.00000 0 19843292.005 -12291128.910 10325306.312 10 0 60535 15300.00000 0 18744058.250 -11347026.280 13088592.726 10 0 60535 16200.00000 0 17506978.019 -10077864.168 15598067.334 10 0 60535 17100.00000 0 16193125.645 -8488709.483 17805049.770 10 0 60535 18000.00000 0 14863219.565 -6597469.114 19666710.657 10 0 60535 18900.00000 0 13575050.535 -4434407.544 21146899.733 10 0 60535 19800.00000 0 12381051.208 -2041149.941 22216846.126 10 0 60535 20700.00000 0 11326108.518 530789.387 22855717.498 10 0 60535 21600.00000 0 10445710.121 3221893.609 23051027.467 10 0 60535 22500.00000 0 9764502.282 5966868.293 22798883.356 10 0 60535 23400.00000 0 9295319.526 8697113.731 22104069.196 10 0 60535 24300.00000 0 9038726.765 11343343.304 20979961.880 10 0 60535 25200.00000 0 8983093.302 13838240.229 19448281.291 10 0 60535 26100.00000 0 9105195.915 16119042.979 17538678.395 10 0 60535 27000.00000 0 9371326.014 18129952.294 15288168.284 10 0 60535 27900.00000 0 9738854.555 19824259.676 12740418.235 10 0 60535 28800.00000 0 10158188.921 21166108.484 9944903.876 10 0 60535 29700.00000 0 10575039.113 22131813.848 6955949.289 10 0 60535 30600.00000 0 10932897.170 22710685.924 3831669.551 10 0 60535 31500.00000 0 11175624.325 22905321.816 632836.407 10 0 60535 32400.00000 0 11250035.467 22731353.930 -2578310.307 10 0 60535 33300.00000 0 11108370.355 22216665.619 -5739281.641 10 0 60535 34200.00000 0 10710545.622 21400107.636 -8788564.144 10 0 60535 35100.00000 0 10026090.893 20329770.234 -11666825.262 10 0 60535 36000.00000 0 9035685.785 19060884.624 -14318075.080 10 0 60535 36900.00000 0 7732231.601 17653443.214 -16690760.938 10 0 60535 37800.00000 0 6121411.434 16169639.860 -18738773.074 10 0 60535 38700.00000 0 4221714.171 14671238.627 -20422341.491 10 0 60535 39600.00000 0 2063920.659 13216982.363 -21708806.647 10 0 60535 40500.00000 0 -309926.993 11860150.151 -22573249.371 10 0 60535 41400.00000 0 -2848030.327 10646366.078 -22998968.356 10 0 60535 42300.00000 0 -5490751.193 9611750.711 -22977796.697 10 0 60535 43200.00000 0 -8172860.646 8781491.941 -22510252.103 10 0 60535 44100.00000 0 -10826026.879 8168893.938 -21605518.632 10 0 60535 45000.00000 0 -13381439.183 7774942.791 -20281260.925 10 0 60535 45900.00000 0 -15772459.482 7588405.653 -18563275.011 10 0 60535 46800.00000 0 -17937191.925 7586457.846 -16484982.750 10 0 60535 47700.00000 0 -19820864.478 7735810.377 -14086779.854 10 0 60535 48600.00000 0 -21377924.351 7994289.384 -11415250.107 10 0 60535 49500.00000 0 -22573760.985 8312800.219 -8522260.928 10 0 60535 50400.00000 0 -23385985.748 8637592.832 -5463957.689 10 0 60535 51300.00000 0 -23805215.944 8912732.523 -2299676.148 10 0 60535 52200.00000 0 -23835331.298 9082671.572 909206.096 10 0 60535 53100.00000 0 -23493193.056 9094813.007 4100456.911 10 0 60535 54000.00000 0 -22807838.310 8901958.235 7212192.802 10 0 60535 54900.00000 0 -21819183.831 8464534.994 10184074.786 10 0 60535 55800.00000 0 -20576294.177 7752511.428 12958473.925 10 0 60535 56700.00000 0 -19135286.870 6746915.142 15481584.203 10 0 60535 57600.00000 0 -17556962.356 5440892.579 17704461.555 10 0 60535 58500.00000 0 -15904257.899 3840263.240 19583969.310 10 0 60535 59400.00000 0 -14239631.578 1963544.259 21083612.171 10 0 60535 60300.00000 0 -12622485.385 -158557.207 22174243.065 10 0 60535 61200.00000 0 -11106734.644 -2484164.255 22834629.464 10 0 60535 62100.00000 0 -9738624.825 -4961722.409 23051868.445 10 0 60535 63000.00000 0 -8554886.516 -7531903.371 22821642.415 10 0 60535 63900.00000 0 -7581305.307 -10129842.827 22148310.283 10 0 60535 64800.00000 0 -6831766.164 -12687620.762 21044831.805 10 0 60535 65700.00000 0 -6307812.149 -15136882.431 19532525.796 10 0 60535 66600.00000 0 -5998735.981 -17411491.803 17640666.028 10 0 60535 67500.00000 0 -5882200.629 -19450107.617 15405921.667 10 0 60535 68400.00000 0 -5925362.879 -21198574.868 12871652.154 10 0 60535 69300.00000 0 -6086452.539 -22612031.793 10087069.485 10 0 60535 70200.00000 0 -6316740.485 -23656644.004 7106283.604 10 0 60535 71100.00000 0 -6562812.027 -24310892.707 3987249.252 10 0 60535 72000.00000 0 -6769048.820 -24566362.573 790634.911 10 0 60535 72900.00000 0 -6880213.355 -24427995.882 -2421363.657 10 0 60535 73800.00000 0 -6844025.461 -23913802.132 -5586241.461 10 0 60535 74700.00000 0 -6613620.380 -23054035.491 -8642409.176 10 0 60535 75600.00000 0 -6149782.942 -21889875.138 -11530400.039 10 0 60535 76500.00000 0 -5422861.899 -20471664.683 -14194034.249 10 0 60535 77400.00000 0 -4414282.174 -18856785.583 -16581517.369 10 0 60535 78300.00000 0 -3117590.004 -17107254.872 -18646450.765 10 0 60535 79200.00000 0 -1538985.916 -15287148.931 -20348734.216 10 0 60535 80100.00000 0 302677.719 -13459962.124 -21655343.142 10 0 60535 81000.00000 0 2376435.094 -11686011.403 -22540965.735 10 0 60535 81900.00000 0 4640259.363 -10019995.587 -22988488.194 10 0 60535 82800.00000 0 7042585.398 -8508811.144 -22989319.363 10 0 60535 83700.00000 0 9524239.761 -7189715.020 -22543549.253 10 0 60535 84600.00000 0 12020697.837 -6088910.259 -21659939.108 10 0 60535 85500.00000 0 14464574.504 -5220612.176 -20355743.833 99